LEASAT 5

Last updated on Jan. 25, 2016, 8:59 a.m. UTC

1 20410U 90002B   16021.93729532 -.00000344  00000-0  00000+0 0  9999
2 20410  11.5322  15.9995 0003765 290.5089 274.3691  0.99596092 80576
UTC
Height (km)
Latitude
Longitude
Inclination
Orbital Period
UTC large
Height (km)
Speed (km/s)
/
Latitude / Longitude
Inclination (degrees)
Orbital Period (minutes)
Azimuth
Elevation
Range (km)
Doppler Factor
iOS Compass Heading
iOS Angle

Next 30 passes for location: Hong Kong

Rise time Rise Azimuth (degrees) Set time Set Azimuth (degrees) Duration Max altitude (degrees)

No matching passes for this satellites